User: anonymous   Login
Location: Unspecified
(0.0000°N, 0.0000°E)
Time: 06:12:53
(UTC+00:00)
Language:

POLYITAN 1 - Orbit

View from above orbital plane
View from above orbital plane
View from above satellite
View from above satellite

Ground track
Ground track

The orbit data is extracted from the following two-line orbital elements,

1 40042U 14033AJ  18116.70722671  .00000357  00000-0  44621-4 0  9996
2 40042  97.9145  32.3123 0014563 349.3228  10.7677 14.88365824209054
Epoch (UTC): 26 April 2018 16:58:24
Eccentricity: 0.0014563
inclination: 97.9145°
perigee height: 593 km
apogee height: 613 km
right ascension of ascending node: 32.3123°
argument of perigee: 349.3228°
revolutions per day: 14.88365824
mean anomaly at epoch: 10.7677°
orbit number at epoch: 20905

The dashed part of the orbit path shows where the satellite is in the earth's shadow,  

DLR